Regional Weather Roundup
Issued by NWS

Home | Current Version | Previous Version | Graphics & Text | Print | Product List | Glossary On
Versions: 1 2 3 4 5 6 7 8 9 10 11 12 13 14 15 16 17 18 19 20 21 22 23 24 25 26 27 28 29 30 31 32 33 34 35 36 37 38 39 40 41 42 43 44 45 46 47 48 49 50
977
ASUS43 KDMX 191701
RWRIA

WEATHER ROUNDUP FOR IOWA
NATIONAL WEATHER SERVICE DES MOINES IA
1100 AM CST THU JAN 19 2017

NOTE: "FAIR" INDICATES FEW OR NO CLOUDS BELOW 12,000 FEET WITH NO
SIGNIFICANT WEATHER AND/OR OBSTRUCTIONS TO VISIBILITY.

* - THESE STATIONS ARE NOT NWS STATIONS...THUS NOT UNDER NWS
QUALITY CONTROL.  THEY ALSO DO NOT REPORT WEATHER SUCH
AS PRECIPITATION OR FOG.

IAZ001>003-012>014-020>022-031>034-043>046-191800-
   NORTHWEST IOWA

CITY           SKY/WX    TMP DP  RH WIND       PRES   REMARKS
CARROLL *      CLOUDY    34  34 100 SE12      29.80S FOG     WCI  25
CHEROKEE *     CLOUDY    37  37  99 S8        29.77S FOG     WCI  31
DENISON *      CLOUDY    39  37  93 S7        29.77S WCI  34
LE MARS *      CLOUDY    37  36  93 S15       29.76S FOG     WCI  28
ORANGE CITY *  CLOUDY    37  36  93 S10       29.75S FOG     WCI  30
SHELDON *      CLOUDY    36  36 100 SE13      29.74S FOG     WCI  27
SIOUX CITY     FOG       37  35  92 SE10      29.76F VSB 1/2 WCI  30
SPENCER        CLOUDY    35  35 100 S8        29.78S FOG     WCI  29
STORM LAKE *   FOG       34  34 100 SE6       29.77F VSB<1/4 WCI  29
$$

IAZ055>058-069>071-079>083-090>094-191800-
   SOUTHWEST IOWA

CITY           SKY/WX    TMP DP  RH WIND       PRES   REMARKS
ATLANTIC *     CLOUDY    37  37 100 CALM      29.80F FOG
AUDUBON *      CLOUDY    37  36  93 SE3       29.80F FOG
CLARINDA *     FOG       39  39 100 CALM      29.82S VSB 1/2
COUNCIL BLFS * CLOUDY    37  37 100 SE7       29.79S FOG     WCI  32
CRESTON *      FOG       37  37 100 SE8       29.81F VSB 1/4 WCI  31
HARLAN  *      CLOUDY    37  37 100 CALM      29.83S FOG
LAMONI         FOG       40  39  97 SE3       29.81S VSB 1/4
RED OAK *      CLOUDY    39  39 100 MISG      29.80S FOG
SHENANDOAH *   FOG       39  39 100 CALM      29.81S VSB<1/4
$$

IAZ047>049-059>061-072>074-084-191800-
   CENTRAL IOWA

CITY           SKY/WX    TMP DP  RH WIND       PRES   REMARKS
AMES           CLOUDY    34  34 100 SE6       29.84F FOG     WCI  29
ANKENY *       LGT RAIN  36  34  93 E5        29.84F WCI  32
BOONE *        CLOUDY    34  34 100 SE9       29.82F FOG     WCI  26
CHARITON *     PTSUNNY   37  37 100 E5        29.81F FOG     WCI  34
DES MOINES     DRIZZLE   37  36  96 E6        29.83F FOG     WCI  32
GRINNELL*      LGT RAIN  33  33  99 E7        29.86R WCI  27
KNOXVILLE *    LGT RAIN  36  36 100 E5        29.82F VSB 1/2 WCI  32
MARSHALLTOWN   CLOUDY    33  33 100 E9        29.84F FOG     WCI  25
NEWTON *       CLOUDY    36  36 100 SE7       29.84S FOG     WCI  30
PELLA *        CLOUDY    36  35  99 NE3       29.85F FOG
PERRY *        CLOUDY    35  34  98 E6        29.82F FOG     WCI  30
$$

IAZ004>006-015-016-023>025-035-036-191800-
   NORTH CENTRAL IOWA

CITY           SKY/WX    TMP DP  RH WIND       PRES   REMARKS
ALGONA *       CLOUDY    36  36 100 S10       29.80F FOG     WCI  28
CLARION *      CLOUDY    34  34 100 SE12      29.82F WCI  25
ESTHERVILLE      N/A     33  33 100 S13       29.78S WCI  24
FORT DODGE *   CLOUDY    36  34  93 SE7       29.81F WCI  30
MASON CITY     FOG       31  31 100 SE12      29.83F VSB 1/4 WCI  22
FOREST CITY *  CLOUDY    32  32 100 SE9       29.82S FOG     WCI  24
WEBSTER CITY * CLOUDY    34  34 100 SE13      29.81S FOG     WCI  25
IOWA FALLS *   CLOUDY    33  32  96 E8        29.85F FOG     WCI  26
$$

IAZ007>011-017>019-026>030-037>042-050>054-066-191800-
   NORTHEAST IOWA

CITY           SKY/WX    TMP DP  RH WIND       PRES   REMARKS
CEDAR RAPIDS   DRIZZLE   34  33  96 SE6       29.87F FOG     WCI  29
CHARLES CITY * FOG       32  32 100 E13       29.86F VSB 1/4 WCI  22
CLINTON *      CLOUDY    36  36 100 E9        29.91F FOG     WCI  29
DECORAH *      FOG       32  32 100 SE7       29.88S VSB 1/4 WCI  26
DUBUQUE        FOG       33  33 100 SE7       29.90F VSB 1/4 WCI  27
MONTICELLO *   CLOUDY    36  36 100 E8        29.89F FOG     WCI  29
OELWEIN *      CLOUDY    32  32 100 SE8       29.88F FOG     WCI  25
WATERLOO       CLOUDY    33  32  96 SE9       29.87F FOG     WCI  25
$$

IAZ064-065-067-068-078-191800-
   EAST CENTRAL IOWA

CITY           SKY/WX    TMP DP  RH WIND       PRES   REMARKS
DAVENPORT      CLOUDY    36  34  92 E9        29.90F FOG     WCI  29
IOWA CITY      CLOUDY    38  35  89 E3        29.89F
MUSCATINE *    CLOUDY    37  36  93 E6        29.89F FOG     WCI  33
QUAD CITIES    CLOUDY    37  34  89 E10       29.90F FOG     WCI  30
$$

IAZ062-063-075>077-085>089-095>099-191800-
   SOUTHEAST IOWA

CITY           SKY/WX    TMP DP  RH WIND       PRES   REMARKS
BURLINGTON     CLOUDY    38  37  97 SE6       29.88R FOG     WCI  33
FAIRFIELD *    CLOUDY    37  36  93 E6        29.86S FOG     WCI  33
FORT MADISON * CLOUDY    39  37  93 SE5       29.89S FOG
KEOKUK *       FOG       39  39 100 E5        29.87S VSB 3/4
OSKALOOSA *    LGT RAIN  34  34  98 NE6       29.86F VSB 3/4 WCI  29
OTTUMWA        RAIN      36  34  92 E7        29.85S VSB 1/2 WCI  30
WASHINGTON *   CLOUDY    37  37 100 E5        29.89S FOG     WCI  34
$$

ABBREVIATIONS USED IN REMARKS
   TC - TEMPERATURES IN CELSIUS
  WCI - WIND CHILL INDEX
   HX - HEAT INDEX
  VSB - VISIBILITY
$$





USA.gov is the U.S. government's official web portal to all federal, state and local government web resources and services.